Simultaneous Nadir Overpasses (SNOs) Predictions

Prediction of SNOs between GOES-17 and METOP-C Satellite Orbit:

Table of predicted SNOs for the next 14.0 days since TLE Epoch: 11/7/2020
Index Date Time (GOES-17) GOES-17 Lat,Lon METOP-C Lat,Lon Distance(km) Time Diff (sec)
1 11/07/2020 18:54:40 -0.04,-137.23 0.82,-141.00 429.82 80
2 11/08/2020 18:36:41 -0.04,-137.24 -0.30,-136.01 139.40 80
3 11/10/2020 06:55:41 0.03,-137.23 -0.73,-140.60 384.87 80
4 11/11/2020 06:32:23 0.03,-137.22 0.39,-135.61 183.96 80
5 11/12/2020 18:51:16 -0.03,-137.23 0.64,-140.17 335.84 80
6 11/13/2020 18:33:18 -0.03,-137.22 -0.48,-135.18 232.65 80
7 11/15/2020 06:52:18 0.03,-137.20 -0.55,-139.77 292.74 80
8 11/16/2020 06:29:00 0.03,-137.19 0.58,-134.78 275.23 80
9 11/17/2020 18:47:53 -0.02,-137.18 0.45,-139.34 246.03 80
10 11/18/2020 18:29:54 -0.02,-137.17 -0.68,-134.35 321.66 80
11 11/20/2020 06:48:54 0.01,-137.14 -0.41,-138.93 204.78 80
